Location: Fuller Park
(33.8686°N, 117.9781°W)
Time: 03:27:59
(UTC+00:00)

Cosmos 1939 Rocket - Pass Details

Date: 03 August 2024
Orbit: 511 x 552 km, 97.5° (Epoch: 13 September)

Event Time Altitude Azimuth Distance (km) Brightness Sun altitude
Rises 12:16:56 0° 14° (NNE) 2,633 7.0 -10.0°
Reaches altitude 10° 12:19:02 10° 16° (NNE) 1,746 6.1 -9.6°
Maximum altitude 12:22:47 72° 101° (E) 550 3.0 -8.9°
Drops below altitude 10° 12:26:33 10° 186° (S) 1,755 5.1 -8.2°
Enters shadow 12:29:55 -4° 189° (S) 3,179 6.4 -7.6°
